Flag for Germany Weather past 2 weeks in Gera, Thuringia, Germany

Now
46 °F

Passing clouds.


Feels Like: 44 °F
Forecast: 46 / 69 °F
Wind: 5 mph from South

Location: Gera-Leumnitz

Current Time: Aug 21, 2014 at 6:36:38 AM

Latest Report: Aug 21, 2014 at 6:00 AM


Visibility: 8 mi

Pressure: 30.03 "Hg

Humidity: 92%

Dew point: 44 °F

Location of GeraLocation

Historic Weather in Gera — Graph

°F

Gera temperature yesterday

Maximum temperature yesterday: 63 °F (at 5:00 PM)
Minimum temperature yesterday: 46 °F (at 6:00 AM)
Average temperature yesterday: 55 °F

Past Weeks' High & Low Weather Summary

 TemperatureHumidityPressure
High83 °F (Aug 10, 5:00 PM)99% (Aug 6, 7:00 AM)30.11 "Hg (Aug 6, 7:00 AM)
Low46 °F (Aug 20, 6:00 AM)35% (Aug 12, 6:00 PM)29.65 "Hg (Aug 13, 5:00 PM)
Average62 °F72%29.89 "Hg
* Reported Aug 6 5:00 AM — Aug 21 5:00 AM, Gera, Weather by CustomWeather, © 2014

Note: Actual official high and low records may vary slightly from our data, if they occured in-between our weather recording intervals... More about our weather records

Advertising

Gera weather history for previous 24 hours

 ConditionsComfort  
Time TempWeatherWind HumidityBarometerVisibility
5:00 AM
Aug 21
47 °FFog.3 mph88%30.02 "Hg3 mi
4:00 AM48 °FOvercast.3 mph89%30.02 "Hg5 mi
3:00 AM50 °FOvercast.2 mph88%30.03 "Hg14 mi
2:00 AM52 °FOvercast.1 mph74%30.02 "Hg22 mi
1:00 AM53 °FOvercast.1 mph75%30.02 "Hg25 mi
12:00 AM53 °FOvercast.2 mph78%30.02 "Hg19 mi
11:00 PM
Aug 20
55 °FOvercast.2 mph63%30.01 "Hg34 mi
10:00 PM57 °FOvercast.2 mph59%30.01 "Hg40 mi
9:00 PM58 °FOvercast.1 mph51%29.99 "Hg22 mi
8:00 PM60 °FOvercast.1 mph50%29.98 "Hg43 mi
7:00 PM62 °FOvercast.1 mph46%29.98 "Hg43 mi
6:00 PM62 °FOvercast.3 mph44%29.98 "Hg34 mi
5:00 PM63 °FOvercast.2 mph41%29.98 "Hg47 mi
4:00 PM61 °FPartly sunny.6 mph43%29.99 "Hg47 mi
3:00 PM61 °FOvercast.6 mph44%30.00 "Hg47 mi
2:00 PM62 °FOvercast.6 mph49%30.00 "Hg47 mi
1:00 PM59 °FOvercast.6 mph53%30.01 "Hg47 mi
12:00 PM58 °FOvercast.7 mph57%30.02 "Hg47 mi
11:00 AM57 °FPartly sunny.5 mph62%30.02 "Hg40 mi
10:00 AM55 °FScattered clouds.7 mph65%30.02 "Hg37 mi
9:00 AM53 °FPassing clouds.6 mph73%30.02 "Hg34 mi
8:00 AM49 °FPassing clouds.5 mph83%30.01 "Hg34 mi
7:00 AM47 °FPassing clouds.3 mph87%30.01 "Hg37 mi
6:00 AM46 °FPassing clouds.3 mph90%30.00 "Hg22 mi
Weather by CustomWeather, © 2014

See weather overviewHow to use our weather pages